GFSSE_sfc_rhum_042.txt.gz
RH
50 49 90 89 88 90 90 90 89 88 87 85 82 80 77 77 76 75 72 72 73 72 67 70 73 72 65 67 73 75 76 78 75 72 68 62 62 64 68 72 65 52 74
46 48 91 90 90 89 90 89 88 86 84 81 79 78 78 76 75 74 73 72 71 66 65 66 73 72 64 69 74 76 75 79 77 72 67 60 63 64 66 68 73 58 73
54 45 63 90 90 89 88 87 85 83 81 78 78 78 76 75 75 74 73 73 73 69 68 67 70 72 69 74 79 77 75 76 75 66 58 30 42 67 68 68 70 67 69
55 47 47 92 88 87 86 84 82 78 78 79 78 76 75 76 75 75 75 76 77 75 69 67 71 74 74 80 81 78 75 73 73 65 30 30 35 66 67 69 70 68 65
54 46 53 90 88 86 85 83 79 78 79 79 77 76 77 75 75 75 76 75 76 76 73 70 76 79 82 84 82 79 76 75 72 40 30 35 37 57 70 72 66 70 71
62 56 82 90 88 86 83 81 79 79 80 78 78 78 76 75 75 76 76 72 72 74 73 75 77 78 82 82 82 79 78 73 55 27 32 44 44 63 66 70 71 71 70
77 71 76 89 86 83 82 80 80 81 79 78 78 78 77 76 77 78 77 74 73 74 74 75 74 79 81 82 80 79 77 68 26 26 30 38 50 62 61 64 67 68 69
86 82 88 85 85 84 82 82 83 82 81 81 80 79 80 82 82 82 80 78 76 77 79 77 77 79 80 78 77 80 75 66 29 26 30 36 61 59 59 60 64 66 67
95 92 91 85 82 88 90 89 87 85 85 84 84 84 84 84 82 80 80 79 77 75 77 79 80 80 78 78 80 84 82 70 30 31 28 31 60 55 55 57 61 64 66
98 97 94 90 87 84 81 92 91 89 89 88 88 85 84 81 81 80 79 80 80 77 77 81 83 81 76 75 77 79 76 66 30 29 30 40 59 56 54 57 60 62 63
98 97 96 94 89 79 74 76 87 90 90 87 82 82 71 38 38 43 72 80 82 83 82 83 84 80 79 75 72 67 60 28 28 28 29 73 59 58 57 59 59 60 62
97 96 91 87 87 83 78 75 64 60 47 56 56 50 34 43 37 38 60 84 84 84 81 78 73 68 57 30 31 46 27 30 27 27 35 70 59 60 60 60 59 60 61
91 90 92 94 93 88 92 82 68 61 65 53 55 44 47 43 45 40 46 46 48 57 37 40 39 31 36 32 32 33 31 28 25 23 44 69 65 54 60 60 58 58 60
87 90 88 87 75 82 90 72 61 48 47 43 44 48 50 43 46 44 40 44 46 40 43 40 38 44 41 38 38 38 36 29 25 21 42 73 65 60 49 62 57 57 58
80 86 83 83 81 81 80 82 66 58 51 45 47 46 41 40 49 44 46 42 42 42 41 40 40 38 40 38 36 35 34 32 28 20 21 74 73 62 58 49 59 56 55
76 78 86 78 68 76 58 59 65 60 50 50 42 48 53 44 51 48 51 46 42 39 39 39 38 37 36 36 38 35 31 26 27 29 21 35 72 70 59 51 60 57 54
53 58 58 62 58 56 56 54 46 46 44 43 45 60 58 55 57 55 51 47 44 44 46 45 43 39 34 31 34 29 25 29 26 29 25 26 32 72 71 57 54 50 51
46 52 56 50 57 68 62 53 42 44 44 41 49 58 64 61 59 58 51 48 47 47 42 42 39 36 35 31 30 25 26 27 30 30 28 29 27 24 62 66 57 50 49
43 49 58 59 60 70 64 54 53 52 45 43 54 56 64 62 61 54 49 49 53 46 46 42 40 38 34 28 24 26 29 26 29 21 30 33 35 30 26 62 58 58 50
45 48 52 55 65 69 66 57 45 42 43 52 58 56 62 56 59 53 48 54 49 45 46 41 44 35 31 29 17 23 32 31 29 30 29 23 26 30 26 28 27 32 51
50 50 52 59 61 60 70 58 48 45 47 58 64 65 65 56 56 55 49 54 48 46 45 48 42 43 35 32 33 35 36 39 39 30 29 26 28 28 32 27 25 21 26
50 54 56 53 56 58 55 53 44 46 45 49 58 65 64 61 55 54 53 51 48 46 50 48 44 37 32 36 39 39 40 37 37 36 31 32 36 29 28 28 30 31 30
49 51 51 51 53 56 53 50 45 48 54 59 67 70 65 62 54 53 54 49 50 46 46 47 42 37 38 41 45 42 38 33 31 31 43 35 38 35 32 30 32 33 34
46 46 48 49 51 52 55 52 56 48 49 54 61 59 55 61 56 49 50 51 52 45 45 42 35 41 47 51 63 44 42 33 30 33 36 38 36 34 36 34 32 34 35
42 47 50 50 54 53 57 57 58 57 48 49 58 57 59 60 57 52 52 52 51 43 44 41 48 50 59 68 49 39 41 38 42 40 33 27 28 28 30 33 36 37 36
40 47 52 52 52 57 64 69 69 69 61 71 64 58 57 58 56 58 51 53 49 42 45 46 51 61 66 54 39 36 34 36 33 34 36 36 35 32 30 35 36 34 35

GFSSE_sfc_rhum_045.txt.gz
RH
41 52 91 91 90 91 91 91 90 88 87 86 83 81 79 79 78 76 76 76 77 76 72 70 68 66 68 71 74 73 74 75 73 71 70 64 63 65 69 75 65 56 76
41 50 90 90 91 91 91 90 90 88 86 83 81 80 80 78 76 76 77 77 75 74 72 67 63 65 66 70 72 72 70 74 74 72 70 64 66 66 66 70 72 60 74
46 48 67 90 90 90 90 89 88 85 82 81 80 79 78 77 76 77 76 75 74 73 70 65 65 67 70 72 75 72 70 70 67 64 58 33 48 67 69 72 72 68 68
54 47 63 92 90 89 88 87 85 80 79 80 79 77 77 77 77 78 80 79 76 74 70 67 66 69 72 75 76 73 71 69 66 66 30 31 38 71 69 68 70 70 66
71 46 68 93 90 88 87 85 81 80 80 79 78 78 78 77 77 79 83 81 77 75 71 68 69 73 77 83 81 76 72 70 67 38 32 37 40 58 67 70 65 72 74
82 66 87 92 90 87 85 82 81 81 80 79 79 78 77 77 77 78 82 81 78 76 74 70 72 74 82 83 80 75 74 68 68 28 34 46 47 61 62 66 69 69 68
77 80 80 91 88 85 83 82 82 82 81 81 79 78 77 77 79 79 79 80 81 80 76 73 72 77 82 82 76 74 72 72 24 28 33 42 52 59 60 63 65 67 68
76 87 91 88 86 85 83 84 85 83 83 82 81 80 79 82 82 80 80 82 82 82 80 79 80 79 78 76 75 76 74 72 28 28 33 39 59 58 59 61 63 66 67
95 95 94 85 86 88 89 89 87 86 85 84 85 87 87 85 83 80 78 80 82 80 79 79 80 80 75 77 78 76 69 69 30 29 27 34 57 55 57 60 61 63 65
98 98 97 95 86 86 85 91 91 91 90 89 88 87 84 81 81 82 79 78 79 80 81 81 81 79 77 77 77 75 69 63 28 26 33 44 58 55 56 58 59 62 63
98 94 95 97 91 85 86 88 88 90 89 87 81 83 73 50 41 52 74 83 82 84 84 83 81 80 79 74 68 63 65 27 25 25 35 74 60 57 57 58 58 60 63
98 97 91 87 83 81 71 75 71 64 60 59 55 62 44 53 43 42 69 86 86 85 85 83 78 76 66 31 32 53 27 28 25 26 44 71 62 60 60 58 58 60 62
95 92 92 86 84 84 85 88 73 56 55 58 60 60 51 49 52 44 51 47 53 60 39 45 44 36 37 32 33 34 30 27 24 22 50 68 63 57 62 59 58 59 61
94 92 92 93 92 91 92 89 83 58 60 60 60 59 62 44 51 46 41 42 45 41 42 39 37 44 41 39 39 36 35 29 23 19 47 70 61 57 52 61 58 59 58
89 91 91 90 88 89 91 86 72 54 56 52 49 48 53 48 52 43 42 41 41 40 41 40 42 39 41 39 34 34 30 28 26 20 30 71 66 58 51 51 60 58 57
83 83 86 89 88 80 74 82 83 80 64 58 49 53 56 44 51 42 46 41 42 40 39 39 39 40 38 35 38 33 28 24 26 28 20 43 70 67 59 48 63 58 57
84 85 89 88 79 66 64 61 55 72 56 58 51 61 53 53 56 50 48 46 43 42 43 41 44 40 36 30 33 28 24 27 24 26 24 25 47 73 70 59 60 61 57
80 72 65 47 50 67 58 49 44 47 46 40 41 48 56 50 50 54 49 48 46 47 44 44 43 40 34 32 30 26 26 26 28 28 26 29 26 27 67 68 58 51 50
52 52 56 61 65 73 65 49 48 47 42 36 40 42 55 55 56 54 49 49 53 46 46 44 43 40 36 30 26 27 30 28 28 20 28 31 33 28 27 66 63 57 49
45 51 53 53 60 69 70 49 43 38 42 36 37 41 52 52 57 57 48 52 53 47 47 46 46 39 32 31 20 22 33 34 30 30 30 25 26 30 28 29 32 39 54
47 49 48 54 55 64 63 48 42 41 38 37 39 44 49 52 56 56 47 53 54 48 49 50 47 45 37 33 34 37 36 40 40 33 30 28 28 28 30 30 29 24 34
43 44 46 47 49 58 60 49 40 38 34 36 40 54 61 56 54 54 53 52 55 48 52 54 49 42 37 36 43 44 50 44 39 38 32 31 37 32 28 29 31 31 31
41 43 42 43 47 48 45 44 41 37 37 38 41 47 63 59 52 54 54 52 53 50 52 54 49 46 39 42 47 54 64 50 35 34 42 37 39 36 35 33 32 32 33
42 41 42 42 42 52 47 48 46 39 41 43 51 57 58 64 58 51 51 54 55 52 52 52 43 44 43 49 52 44 51 45 41 38 34 40 39 40 40 34 34 34 34
41 42 45 42 41 42 45 46 50 47 42 41 45 58 64 57 60 55 54 58 60 53 52 52 46 47 46 56 51 57 46 43 44 46 46 34 32 28 29 32 34 36 35
32 42 47 44 42 42 44 48 52 54 53 55 66 60 54 56 60 59 53 60 63 60 54 48 48 64 60 60 66 45 41 38 38 40 40 38 36 32 28 30 37 36 34

GFSSE_sfc_rhum_048.txt.gz
RH
62 71 91 90 91 91 92 91 91 90 88 86 84 82 82 80 80 79 80 81 80 75 66 67 68 68 67 65 67 70 74 75 74 73 72 65 64 66 69 74 75 71 78
81 71 92 90 91 91 91 91 90 89 86 84 83 82 80 80 81 81 81 80 79 71 65 66 65 64 62 66 70 74 76 77 76 72 68 65 66 67 70 70 74 68 74
94 77 80 91 90 90 90 90 88 86 83 83 82 80 79 80 81 80 79 80 78 70 65 65 65 63 62 67 75 73 72 72 76 75 62 59 64 65 70 73 72 68 69
91 69 81 92 90 90 89 88 86 82 82 82 80 78 79 80 80 80 79 80 77 72 65 65 65 65 67 74 76 75 75 75 71 60 44 49 55 69 65 69 72 68 67
66 64 81 91 88 90 89 86 84 83 82 80 78 79 80 80 81 82 81 79 77 72 66 66 67 69 75 80 78 76 72 71 67 49 51 54 58 59 66 67 68 70 67
66 71 95 94 87 87 86 85 84 83 82 80 80 80 80 82 84 84 83 79 78 74 67 67 70 74 82 78 74 75 76 73 64 45 52 59 58 60 63 67 67 68 69
89 90 91 98 92 87 85 84 84 83 82 82 81 80 80 82 85 85 83 81 81 76 72 70 73 78 80 76 76 76 74 71 38 44 53 62 62 60 62 65 66 68 66
90 90 92 93 91 86 85 86 86 85 85 84 83 82 83 83 84 86 86 86 83 80 80 80 81 80 79 76 73 70 72 74 38 44 50 61 64 59 60 62 65 66 66
95 93 91 93 92 94 92 89 88 87 87 86 86 87 87 84 84 86 87 86 83 82 81 81 81 81 79 75 69 70 75 73 57 43 42 58 60 58 58 59 62 64 65
96 95 95 94 91 84 88 91 90 91 92 91 88 86 85 83 83 84 85 82 81 81 81 82 83 82 78 74 67 63 67 70 41 46 54 69 60 57 57 57 60 63 64
98 96 96 97 92 92 90 88 89 91 90 86 82 82 74 60 60 63 82 84 84 84 83 82 81 79 74 67 66 67 66 45 39 52 70 74 62 58 58 57 60 62 62
98 98 96 92 87 82 86 87 86 79 77 74 68 68 58 65 63 64 82 86 88 86 84 80 78 76 69 52 56 66 46 43 44 58 79 77 65 60 60 58 59 61 62
95 93 93 92 86 83 86 87 86 89 74 74 75 67 70 66 68 74 80 73 83 78 64 67 72 60 54 57 57 55 50 47 45 50 73 73 64 62 62 59 60 61 61
96 91 88 87 84 85 85 86 88 82 72 73 72 72 77 74 68 66 65 69 70 66 63 63 64 64 58 54 51 51 48 43 40 52 72 70 63 56 59 61 59 60 59
96 96 94 93 93 89 87 93 89 78 70 69 68 68 68 72 73 67 67 62 61 61 63 66 65 59 58 53 51 47 40 39 38 45 66 67 66 53 48 58 61 61 59
90 94 93 94 94 92 94 88 92 78 72 64 62 72 68 74 72 69 68 66 65 64 64 63 63 62 61 55 52 42 40 39 37 38 55 67 67 68 57 46 58 62 59
86 88 93 95 93 92 87 93 89 75 68 75 72 71 71 70 69 72 72 71 68 66 65 64 61 63 57 50 48 42 42 36 38 36 40 60 74 74 72 67 61 62 60
81 88 85 83 89 92 93 92 71 62 72 70 72 78 71 70 70 74 75 72 71 71 68 69 66 65 64 56 54 47 43 40 38 37 41 43 53 59 78 71 62 56 53
73 83 85 83 80 82 72 45 52 60 69 63 65 66 73 71 70 75 76 75 74 72 74 68 71 68 63 55 49 48 48 48 45 31 37 40 44 46 65 75 71 65 55
67 69 68 64 65 72 72 50 48 57 57 60 55 54 65 71 73 79 80 77 80 74 74 72 70 65 62 58 31 37 54 54 52 51 47 36 40 40 41 52 74 71 68
60 61 58 58 63 76 77 66 66 60 60 58 55 54 66 65 73 79 81 78 82 75 74 74 72 66 60 55 55 60 64 64 58 56 54 51 44 42 44 43 48 47 66
58 59 62 63 65 69 74 67 60 57 53 52 55 56 68 72 70 73 78 75 79 77 75 76 73 72 70 65 68 71 76 70 68 61 59 51 52 49 46 44 46 41 48
60 62 61 58 58 61 69 62 58 54 56 52 54 70 74 73 72 71 75 78 79 78 80 80 77 73 70 69 65 74 79 77 64 67 66 61 62 62 55 51 44 44 46
54 55 54 53 53 54 63 66 62 52 52 51 59 64 69 76 76 69 70 76 77 82 79 80 70 74 72 75 79 62 64 68 70 69 67 66 64 55 61 64 52 47 47
48 52 53 51 50 52 55 62 64 62 58 59 55 73 75 80 79 77 76 79 83 83 82 79 76 76 74 76 72 74 70 69 74 74 78 66 66 60 59 66 60 59 47
44 50 53 50 48 51 58 60 73 72 64 68 77 82 84 82 80 83 74 81 83 83 82 78 71 70 79 75 71 67 66 64 60 66 69 69 64 56 48 53 61 59 59

GFSSE_sfc_rhum_051.txt.gz
RH
82 86 91 91 91 91 92 92 90 88 86 85 83 82 82 81 82 84 82 76 75 72 68 65 66 67 65 66 68 75 77 77 75 74 72 66 66 68 74 75 78 73 77
84 81 90 90 91 91 92 91 89 87 85 84 82 82 82 83 85 84 79 75 74 69 65 61 61 63 67 70 74 78 78 75 75 75 71 65 68 70 69 73 77 73 77
81 86 83 89 91 90 90 90 87 85 84 82 81 82 84 84 84 83 77 74 73 70 62 58 60 62 64 69 77 77 76 74 73 74 70 61 62 69 72 70 71 71 73
78 71 88 89 90 90 90 88 85 83 83 81 80 83 84 83 83 83 76 75 74 71 61 57 59 65 70 75 78 76 72 70 71 68 60 61 59 65 67 69 67 68 68
80 78 84 90 89 90 89 86 84 84 82 80 81 82 82 81 82 83 78 76 74 70 61 58 63 69 74 77 75 73 76 71 70 63 67 69 65 63 67 68 67 68 69
86 82 91 92 85 90 88 86 86 84 82 81 81 82 82 82 82 83 80 76 75 70 62 61 66 71 77 76 73 74 68 69 67 66 70 62 61 64 65 67 68 64 71
96 96 93 92 88 94 92 86 85 84 84 83 83 84 84 84 84 84 82 78 76 73 68 67 69 75 76 73 73 75 71 68 58 67 74 71 62 62 64 65 65 65 63
97 96 96 95 90 97 97 89 86 86 86 85 86 87 88 87 86 86 85 80 80 79 80 78 78 76 73 70 74 76 80 65 56 63 68 72 64 61 63 64 65 66 66
96 96 97 97 96 98 95 92 90 88 88 89 88 88 90 91 90 89 86 84 84 83 82 80 79 76 71 69 70 72 77 68 58 58 55 69 61 59 60 62 63 64 65
98 97 96 96 95 94 94 94 94 92 92 90 88 88 89 91 91 89 87 84 83 82 81 80 80 74 68 63 62 68 73 68 62 67 72 69 62 58 58 61 62 64 64
98 98 95 94 92 92 88 92 91 90 89 86 84 84 83 82 82 79 84 85 84 83 82 81 78 72 68 60 58 64 63 60 71 80 87 74 63 59 58 60 61 62 64
98 99 96 94 92 88 86 92 92 85 83 79 74 70 64 74 77 78 85 87 85 83 81 80 77 72 66 55 60 62 53 64 74 85 90 76 65 60 60 60 61 62 63
98 97 95 93 92 86 90 87 88 92 80 73 72 70 73 75 79 83 84 87 90 84 78 78 76 64 59 63 58 57 48 55 67 75 81 76 66 64 62 60 61 62 62
96 96 91 90 90 91 69 76 87 89 77 79 75 75 77 84 72 78 76 78 76 80 69 69 70 68 64 54 54 50 41 47 63 69 78 73 69 62 64 61 61 62 61
95 91 89 89 92 92 92 92 91 92 76 76 86 80 70 74 76 70 73 71 69 75 68 72 72 65 59 55 54 45 42 40 54 62 74 68 66 56 54 63 61 62 60
95 97 93 93 92 89 92 83 88 90 70 76 74 72 75 77 86 75 75 71 77 68 71 73 68 64 62 56 51 41 40 43 43 62 62 68 67 65 56 51 60 64 61
93 92 91 89 86 85 88 86 87 91 74 77 67 71 72 72 73 77 89 86 88 78 72 68 70 68 67 59 50 44 42 41 40 40 60 66 75 73 73 70 58 67 63
88 90 86 80 89 87 88 91 79 72 77 73 73 77 70 71 75 79 86 85 91 77 73 73 74 73 68 63 58 50 51 46 39 37 49 64 67 73 77 72 72 66 64
82 84 87 88 87 86 82 75 69 74 77 75 73 74 72 72 74 77 83 84 80 78 78 73 73 72 74 65 53 56 53 54 44 36 44 52 54 77 81 74 72 69 60
78 82 85 84 81 82 83 66 72 70 75 77 75 72 78 74 76 84 87 90 89 81 79 82 77 76 70 61 39 45 58 56 57 55 47 42 49 59 73 76 82 77 70
86 83 82 82 74 76 81 67 62 61 68 72 74 64 72 77 81 83 92 86 92 83 81 79 79 71 64 60 57 62 66 66 60 60 59 53 48 44 50 63 66 61 72
81 78 76 73 71 69 84 50 50 61 70 66 65 67 68 77 79 87 90 90 90 90 86 84 76 76 69 65 62 81 78 75 75 65 66 58 57 52 49 44 48 52 66
74 71 64 61 62 63 77 69 59 63 69 71 73 66 67 76 82 85 87 92 93 95 92 87 81 71 73 75 70 76 84 83 76 74 71 68 61 64 61 54 50 46 52
66 65 61 56 55 59 70 72 66 72 66 60 64 72 85 80 82 82 84 87 91 94 92 92 83 80 72 68 79 68 74 72 70 72 66 66 71 64 65 65 59 54 52
61 62 63 59 58 60 68 68 78 81 63 64 58 77 82 92 90 89 91 94 91 89 93 91 85 79 81 80 78 76 77 74 72 70 80 65 72 72 68 70 69 65 55
58 64 64 64 64 62 65 66 74 83 79 68 76 73 91 95 96 93 94 95 92 96 94 90 83 81 84 82 76 74 75 75 71 77 80 78 66 63 67 67 76 69 63

GFSSE_sfc_rhum_057.txt.gz
RH
94 97 94 92 92 92 90 89 88 84 82 82 82 84 83 83 81 81 79 75 72 72 67 68 67 65 66 69 72 72 76 76 75 74 74 74 72 72 77 77 76 68 74
92 93 94 92 92 91 88 89 87 84 83 84 85 84 83 82 81 79 76 73 73 72 68 68 69 69 70 72 73 74 74 79 79 74 70 66 69 69 75 77 79 74 74
94 91 87 88 88 87 86 85 85 83 84 84 85 83 82 82 81 77 74 74 74 73 69 70 70 70 73 76 78 75 75 76 77 75 71 69 65 67 70 71 73 71 74
85 88 85 88 85 86 90 87 84 82 84 85 84 82 82 81 79 76 74 74 75 73 68 67 68 70 74 78 79 74 74 74 75 74 73 70 60 65 66 68 66 65 68
87 91 85 83 82 84 89 87 84 82 85 85 84 81 81 80 78 75 73 74 73 72 66 64 64 70 80 80 79 76 74 74 75 75 84 78 70 63 70 68 66 69 62
89 92 90 87 80 88 82 86 86 85 86 86 84 81 80 80 78 75 72 73 74 72 64 61 67 76 80 81 80 77 77 76 77 86 84 69 68 64 64 65 64 62 66
91 87 91 90 86 84 88 87 88 88 88 87 85 81 81 80 79 76 73 74 75 73 67 65 75 80 81 80 78 77 78 74 78 87 84 78 67 64 65 66 66 65 65
91 94 91 90 87 87 87 91 87 89 88 88 86 82 82 82 81 79 78 78 78 76 74 72 79 80 80 78 78 80 79 74 74 82 79 76 64 64 65 65 66 65 65
97 97 95 90 90 94 94 92 90 87 87 86 86 84 85 85 84 82 82 80 76 73 72 71 74 77 78 77 78 80 79 76 80 76 67 76 64 64 64 64 65 64 64
98 98 97 97 96 95 96 92 89 88 88 85 86 92 91 89 87 85 82 78 75 74 73 72 75 80 81 80 78 79 80 76 82 84 83 71 64 62 62 63 64 63 63
99 98 98 98 96 95 92 85 83 86 96 92 95 95 92 88 87 82 81 80 78 79 78 75 73 78 80 79 79 80 76 84 87 87 89 73 64 62 62 64 64 63 63
99 99 98 97 96 92 85 82 82 86 92 92 91 93 91 92 83 81 83 82 80 80 78 77 75 70 66 76 79 77 86 88 90 91 91 75 65 62 62 62 60 59 60
98 98 98 94 90 85 83 92 78 91 95 96 94 91 91 90 85 82 81 81 81 77 69 65 66 66 56 64 72 81 86 91 96 95 87 77 66 62 62 63 63 63 65
98 98 96 93 95 89 79 78 79 86 84 93 92 87 90 88 80 82 83 88 79 76 71 69 73 66 61 57 65 72 76 83 94 95 90 78 74 60 62 63 66 65 65
98 98 98 95 94 90 85 86 94 85 81 85 92 88 81 75 79 86 85 83 76 75 70 70 73 66 64 56 50 58 62 70 72 78 84 77 76 71 60 60 62 66 66
97 96 97 97 95 92 93 95 94 90 85 86 84 79 76 75 80 77 81 76 78 72 71 74 76 68 64 53 50 49 57 58 58 60 67 70 67 72 69 64 64 66 65
95 97 94 95 90 91 94 95 93 86 75 76 73 78 76 75 74 79 90 90 88 80 72 79 77 72 67 55 47 49 54 59 62 56 62 69 73 68 65 64 67 67 65
96 93 93 93 88 90 90 91 76 80 77 74 76 79 83 79 74 83 89 91 91 89 81 84 82 79 72 67 57 54 52 52 58 59 63 68 74 72 76 71 70 65 70
93 95 96 94 87 81 82 78 77 78 78 79 85 83 82 76 78 80 87 92 93 95 91 85 85 81 78 75 64 59 58 56 51 47 63 67 70 82 81 79 81 81 79
91 91 94 92 94 85 84 89 86 76 76 78 77 79 85 84 85 88 92 94 94 96 96 88 82 84 80 76 55 55 62 63 59 59 60 64 70 77 81 84 90 85 77
83 85 86 93 93 91 72 86 80 77 73 73 77 71 77 83 84 90 94 95 95 93 90 85 86 85 84 78 65 65 67 66 67 66 63 68 61 72 84 84 88 84 82
85 84 83 83 86 84 73 60 65 67 69 72 71 72 72 79 82 86 92 96 95 94 91 93 88 89 85 75 68 65 68 70 82 76 72 64 64 69 78 76 80 75 70
89 85 83 80 76 73 72 72 70 64 68 75 74 78 76 76 80 87 91 95 96 95 92 93 92 88 90 81 70 70 80 80 72 72 74 69 68 71 70 67 67 64 64
85 84 81 82 80 79 80 77 69 60 56 71 78 78 76 80 82 87 90 94 95 95 95 92 92 92 92 86 82 80 77 79 75 76 71 70 74 64 71 66 63 61 59
84 95 89 84 78 74 81 82 78 77 69 69 79 82 84 86 88 89 92 94 95 96 95 96 98 95 94 94 90 90 86 83 90 92 84 68 72 72 71 71 74 73 62
90 93 91 87 82 74 76 85 87 77 78 80 84 92 90 90 92 92 92 93 94 96 97 98 97 96 96 97 93 93 91 94 95 93 88 82 74 66 64 74 78 74 74

GFSSE_sfc_rhum_060.txt.gz
RH
97 95 92 91 92 91 91 88 86 87 87 86 84 85 85 84 83 81 78 76 74 72 68 67 68 67 68 69 69 71 75 77 79 77 76 71 71 70 74 76 77 71 77
91 91 92 90 89 89 89 87 86 85 85 84 85 84 84 84 82 77 76 76 74 71 66 66 67 67 69 72 76 76 76 76 77 75 73 71 72 72 76 77 79 72 76
93 91 90 90 88 88 88 86 86 85 85 84 84 84 83 82 78 77 77 76 75 73 68 68 70 70 72 74 77 76 76 76 78 75 71 68 66 70 70 70 73 74 72
91 90 88 89 88 87 88 86 86 85 85 84 84 83 82 79 77 78 77 76 75 74 69 67 71 73 75 77 78 76 76 75 75 74 73 71 56 65 62 64 65 63 67
92 89 87 85 82 83 86 86 86 86 86 84 84 82 80 77 77 78 78 77 76 73 69 71 73 76 78 81 79 77 74 74 75 76 79 76 66 67 68 62 65 69 71
96 90 89 87 85 80 79 86 86 87 86 84 84 82 80 77 77 78 77 76 74 72 69 72 77 79 82 80 79 76 76 78 80 84 80 68 67 63 63 65 65 65 66
93 95 94 90 88 85 84 83 85 87 86 84 83 82 79 76 77 77 78 75 72 70 70 77 77 81 81 80 78 78 79 76 80 84 80 77 68 65 65 65 66 65 66
95 95 96 85 88 86 83 80 80 82 84 84 83 82 79 76 77 78 78 76 74 78 80 82 82 80 80 79 77 81 81 76 76 81 78 70 66 65 65 65 66 65 65
96 97 97 91 88 91 85 84 84 86 83 84 84 83 82 83 81 81 81 76 76 82 82 82 80 79 79 78 80 81 81 77 82 79 70 71 64 64 65 65 64 64 64
98 97 97 96 92 94 95 89 87 86 85 86 87 88 91 88 84 81 76 74 74 76 80 81 80 78 79 80 80 82 82 78 82 82 81 68 66 64 64 63 63 63 63
99 98 98 97 94 93 88 88 87 86 78 87 88 92 92 89 89 82 75 76 77 77 80 82 82 81 80 80 81 82 77 83 86 85 85 72 64 63 64 64 63 63 64
99 99 99 98 98 96 93 89 81 79 74 76 88 90 92 94 88 79 80 79 76 77 78 84 85 84 82 88 83 78 86 87 89 89 87 74 65 63 64 64 64 63 63
99 98 98 97 97 97 96 91 78 71 86 79 92 93 91 92 89 88 81 80 74 74 61 64 66 67 78 82 83 88 89 92 94 92 84 76 66 63 62 61 61 62 60
98 98 97 98 98 95 78 79 76 66 77 95 94 91 88 88 89 92 84 88 80 76 72 71 66 69 73 74 81 86 90 94 95 94 89 79 72 63 61 64 64 64 62
98 98 98 96 92 86 78 74 86 79 86 94 94 90 80 81 83 87 82 77 79 75 75 72 67 63 65 66 72 78 80 85 88 89 90 80 77 69 60 64 67 67 67
98 98 97 93 94 90 82 93 97 90 92 96 96 94 82 78 84 74 79 78 78 74 72 72 66 68 61 55 61 65 66 70 69 71 76 78 76 77 70 62 64 67 67
98 97 98 97 93 89 85 97 92 84 89 96 96 93 83 83 82 82 85 88 87 75 77 79 73 69 64 52 53 56 60 61 61 60 63 67 66 65 68 73 69 67 67
95 96 96 97 96 96 94 96 88 86 89 89 93 86 81 79 79 85 89 87 91 85 83 84 79 74 68 61 56 55 57 61 63 60 62 68 72 64 70 67 70 74 71
93 95 98 95 95 95 95 92 90 85 82 89 85 79 83 76 81 79 84 89 91 92 87 84 87 79 75 72 59 58 57 57 59 53 63 66 70 74 77 76 73 75 77
95 96 96 95 94 92 92 91 88 82 86 85 85 80 83 76 80 82 91 91 93 94 94 91 88 87 80 76 57 55 62 63 61 61 62 62 68 75 77 81 89 88 84
93 94 92 94 96 90 85 88 92 90 79 80 79 83 84 87 88 90 93 94 96 95 93 89 88 86 84 78 70 68 69 68 68 65 63 67 71 73 79 82 85 83 83
91 88 89 85 90 93 88 72 83 85 76 74 76 76 79 86 88 92 94 94 95 96 93 92 88 94 89 82 76 73 69 67 76 71 71 65 70 67 74 79 82 80 77
88 89 86 84 85 87 86 84 70 69 86 74 75 74 75 75 83 88 92 96 96 95 94 95 91 88 92 90 78 82 80 80 77 77 80 75 67 65 66 74 75 75 74
86 83 82 80 77 74 79 80 71 64 78 71 71 71 74 77 82 82 90 93 95 97 95 94 93 92 92 92 87 83 83 80 82 78 78 79 71 64 66 67 66 66 66
84 83 81 85 76 72 77 70 78 82 70 74 76 76 76 85 86 88 91 93 95 97 96 95 96 96 95 95 90 93 89 87 89 91 89 80 74 75 72 69 68 67 65
95 93 85 91 83 80 84 82 80 80 78 75 78 88 88 90 91 91 92 94 95 96 96 96 97 98 97 93 93 92 93 94 93 95 92 88 77 70 63 72 77 75 73